#timestamp,LO_Frequency,Hit,StdDev 
1622455215.1,286046999.3,N
1622455235.9,286046999.4,N
1622455255.7,286046996.7,N
1622455275.6,286046997.3,N
1622455295.4,286046996.7,N
1622455315.2,286046997.3,N
1622455335.1,286046996.8,N
1622455336.0,286046996.8,N
1622455355.8,286046999.3,N
1622455375.6,286046997.0,N
1622455395.5,286046997.1,N
1622455415.3,286046997.7,N
1622455435.2,286046997.2,N
1622455455.9,286046995.3,N
1622455475.7,286046995.2,N
1622455495.6,286046995.1,N
1622455515.4,286046995.6,N
1622455535.2,286046996.2,N
1622455555.1,286046993.3,N
1622455556.0,286046993.3,N
1622455575.8,286046994.0,N
1622455595.7,286046991.7,Y
1622455615.5,286046995.9,P
1622455635.3,286046994.5,P
1622455655.2,286046991.7,P
1622455675.0,286046992.3,Y
1622455675.9,286046992.3,P
1622455695.8,286046996.5,N
1622455715.6,286046997.5,N
1622455735.4,286046995.0,N
1622455755.3,286046993.3,Y
1622455775.1,286046998.5,P
1622455795.8,286046998.8,N
1622455815.7,286046997.3,N
1622455835.5,286046997.7,N
1622455855.4,286046994.9,Y
1622455875.2,286046999.3,P
1622455895.0,286046999.0,N
1622455895.9,286046999.0,N
1622455915.8,286046999.2,N
1622455935.6,286046997.7,Y
1622455955.5,286046999.6,P
1622455975.3,286046996.6,P
1622455995.1,286046997.1,N
1622456015.9,286046996.7,N
1622456035.7,286046997.2,N
1622456055.6,286046995.4,Y
1622456075.4,286046998.3,P
1622456095.2,286046998.9,P
1622456115.1,286046999.4,N
1622456116.0,286046999.4,N
1622456135.8,286046999.5,N
1622456155.6,286046997.1,Y
1622456175.5,286046998.9,P
1622456195.3,286046998.8,P
1622456215.2,286046996.8,P
1622456235.9,286046997.2,Y
1622456255.7,286046999.4,P
1622456275.6,286046998.3,P
1622456295.4,286046999.1,N
1622456315.3,286046997.0,Y
1622456335.1,286046998.6,P
1622456336.0,286046998.6,P
1622456355.8,286046998.8,P
1622456375.7,286046999.2,Y
1622456395.5,286047000.5,P
1622456415.4,286047001.0,N
1622456435.2,286047000.7,N
1622456455.0,286047000.6,N
1622456455.9,286047000.6,N
1622456475.8,286047001.0,N
1622456495.6,286046998.1,N
1622456515.4,286046998.8,N
1622456535.3,286046998.3,N
1622456555.1,286046998.9,N
1622456575.9,286046998.2,N
1622456595.7,286046998.8,N
1622456615.5,286046998.1,N
1622456635.4,286047000.8,N
1622456655.2,286046998.7,N
1622456675.1,286046998.1,N
1622456676.0,286046998.1,N
1622456695.8,286046998.2,N
1622456715.6,286046998.6,N
1622456735.5,286046999.0,N
1622456755.3,286046998.9,N
1622456775.1,286046999.6,N
1622456795.9,286046997.0,N
1622456815.7,286046997.0,N
1622456835.6,286046996.5,N
1622456855.4,286046998.9,N
1622456875.2,286046999.5,N
1622456895.1,286046997.4,N
1622456896.0,286046997.4,N
1622456915.8,286046997.1,N
1622456935.7,286046997.9,N
1622456955.5,286046998.0,N
1622456975.3,286046997.8,N
1622456995.2,286046995.5,Y
1622457015.0,286046997.2,P
1622457015.9,286046997.2,P
1622457035.7,286046997.8,P
1622457055.6,286046995.2,Y
1622457075.4,286046999.1,P
1622457095.3,286046999.4,N
1622457115.1,286046996.6,P
1622457116.0,286046996.6,Y
1622457135.8,286046998.1,P
1622457155.7,286046998.3,P
1622457175.5,286046998.7,P
1622457195.4,286046996.6,Y
1622457215.2,286047000.8,P
1622457235.0,286046998.3,N
1622457235.9,286046998.3,N
1622457255.8,286046998.8,N
1622457275.6,286046998.7,N
1622457295.4,286046999.4,N
1622457315.3,286046996.7,Y
1622457335.1,286046999.6,P
1622457355.9,286046996.5,P
1622457375.7,286046997.6,N
1622457395.5,286046997.9,N
1622457415.4,286046995.3,Y
1622457435.2,286046996.8,P
1622457455.1,286046997.9,P
1622457456.0,286046997.9,P
1622457475.8,286046995.8,Y
1622457495.6,286046996.9,P
1622457515.5,286046998.0,P
1622457535.3,286046995.0,P
1622457555.2,286046995.7,Y
1622457575.9,286046998.9,P
1622457595.7,286046998.3,N
1622457615.6,286046998.3,N
1622457635.4,286047000.1,N
1622457655.2,286047001.8,N
1622457675.1,286047004.1,N
1622457676.0,286047004.1,N
1622457695.8,286047001.3,N
1622457715.7,286047001.7,N
1622457735.5,286047002.4,N
1622457755.3,286047002.6,N
1622457775.2,286047001.7,N
1622457795.0,286047003.6,N
1622457795.9,286047003.6,N
1622457815.8,286047003.3,N
1622457835.6,286047004.4,N
1622457855.4,286047001.7,N
1622457875.3,286047002.3,N
1622457895.1,286047002.1,N
1622457915.8,286047000.1,N
1622457935.7,286047002.8,N
1622457955.5,286047002.1,N
1622457975.4,286047000.6,N
1622457995.2,286047002.7,N
1622458015.0,286047000.5,N
1622458015.9,286047000.5,N
1622458035.8,286047000.8,N
1622458055.6,286046998.6,N
1622458075.5,286046999.4,N
1622458095.3,286046996.9,N
1622458115.1,286046997.5,N
1622458135.9,286046995.7,N
1622458155.7,286046993.6,N
1622458175.5,286046998.0,N
1622458195.4,286046997.8,N
1622458215.2,286046995.1,N
1622458235.1,286046995.8,N
1622458236.0,286046995.8,N
1622458255.8,286046993.9,N
1622458275.6,286046993.3,N
1622458295.5,286046994.5,N
1622458315.3,286046994.5,N
1622458335.1,286046992.3,N
1622458355.9,286046992.7,N
1622458375.7,286046990.4,N
1622458395.6,286046991.0,N
1622458415.4,286046991.6,N
1622458435.2,286046991.0,N
1622458455.1,286046988.8,N
1622458456.0,286046988.8,N
1622458475.8,286046988.8,N
1622458495.7,286046988.9,N
1622458515.5,286046991.5,N
1622458535.3,286046989.2,N
1622458555.2,286046991.5,N
1622458575.0,286046989.4,N
1622458575.9,286046989.4,Y
1622458595.8,286046995.8,P
1622458615.6,286046993.4,P
1622458635.4,286046994.2,P
1622458655.3,286046993.8,Y
1622458675.1,286047000.7,P
1622458695.8,286047000.9,N
1622458715.7,286047001.1,N
1622458735.5,286046998.3,N
1622458755.4,286046998.5,N
1622458775.2,286047001.1,N
1622458795.0,286047000.3,N
1622458795.9,286047000.3,N
